P/2016 J1 ( PanSTARRS )

Japanese version
Home page
Updated on November 13, 2016

---------------------------------------------------------------------

* Profile

Discovery Date May 5, 2016
Magnitude 21.4 mag
Discoverer Pan-STARRS 1 telescope (Haleakala)

* Pictures

* Orbital Elements

P/2016 J1-A (PANSTARRS)
T 2016 June 24.31098 TT                                 MPCW
q   2.4478953            (2000.0)            P               Q
n   0.17445729     Peri.   46.61521     -0.40690624     +0.90959398
a   3.1720740      Node   199.85494     -0.89323230     -0.41546609
e   0.2282982      Incl.   14.32948     -0.19121550     +0.00516832
P   5.65
From 13 observations 2016 Apr. 3-May 11.

P/2016 J1-B (PANSTARRS)
T 2016 June 21.64274 TT                                 MPCW
q   2.4437232            (2000.0)            P               Q
n   0.17497289     Peri.   46.01983     -0.41815502     +0.90455656
a   3.1658394      Node   199.73376     -0.88792161     -0.42635035
e   0.2280963      Incl.   14.26676     -0.19168095     +0.00167374
P   5.63
From 10 observations 2016 Mar. 4-May 11.

* Magnitudes Graph

        Component A
        m1 = 16.5 + 5 log d + 10.0 log r

        Component B
        m1 = 17.0 + 5 log d + 10.0 log r

---------------------------------------------------------------------

The orbital elements are published on M.P.E.C. 2016-M09.
The magnitudes graphs are made with Comet for Windows.

---------------------------------------------------------------------

Copyright(C) Seiichi Yoshida (comet@aerith.net). All rights reserved.